Regional Weather Roundup
Issued by NWS

Home | Current Version | Previous Version | Text Only | Print | Product List | Glossary On
Versions: 1 2 3 4 5 6 7 8 9 10 11 12 13 14 15 16 17 18 19 20 21 22 23 24 25 26 27 28 29 30 31 32 33 34 35 36 37 38 39 40 41 42 43 44 45 46 47 48 49 50
000
ASUS43 KOAX 190110
RWRNE

WEATHER ROUNDUP FOR NEBRASKA
NATIONAL WEATHER SERVICE OMAHA NE
700 PM CST THU DEC 18 2014

NOTES: SATELLITE DATA IS BEING USED TO AUGMENT CLOUD COVER ABOVE
       12000 FEET.
       "FAIR" INDICATES FEW OR NO CLOUDS BELOW 12,000 FEET WITH NO
       SIGNIFICANT WEATHER AND/OR OBSTRUCTIONS TO VISIBILITY.

  * THESE STATIONS DO NOT REPORT WEATHER SUCH AS RAIN...SNOW OR FOG.

NEZ001>004-019>022-054>056-190200-
NEBRASKA PANHANDLE

CITY           SKY/WX    TMP DP  RH WIND       PRES   REMARKS
SCOTTSBLUFF    CLOUDY    16  13  88 S3        30.05R
ALLIANCE       PTCLDY    18  15  88 W7        30.03R WCI   9
CHADRON        PTCLDY    22  17  81 SW8       30.03S WCI  12
KIMBALL        MOCLDY    32  21  64 NW10      30.03R WCI  24
SIDNEY         PTCLDY    25  19  78 W8        30.06R WCI  16
$$

NEZ057>060-069>072-079>082-190200-
SOUTHWEST NEBRASKA

CITY           SKY/WX    TMP DP  RH WIND       PRES   REMARKS
NORTH PLATTE   PTCLDY    24  22  91 S3        30.09S FOG
IMPERIAL       MOCLDY    24  21  88 SW3       30.09R FOG
LEXINGTON      CLOUDY    30  28  90 SW7       30.12S WCI  23
MCCOOK         CLOUDY    29  27  92 SW5       30.12R WCI  24
OGALLALA       PTCLDY    18  16  93 CALM      30.07S
$$

NEZ005>010-023>029-035>040-094-190200-
NORTH CENTRAL NEBRASKA

CITY           SKY/WX    TMP DP  RH WIND       PRES   REMARKS
VALENTINE      FOG       14  13  95 SE5       30.06R VSB 3/4 WCI   6
AINSWORTH      CLOUDY    23  22  97 S3        30.07F FOG
BROKEN BOW     CLOUDY    30  27  88 SW9       30.10R WCI  22
O`NEILL        CLOUDY    28  27  93 CALM      30.12S
THEDFORD       PTCLDY    22  20  95 CALM      30.07R FOG
$$

NEZ041-046>049-061>064-073>077-083>087-190200-
SOUTH CENTRAL NEBRASKA

CITY           SKY/WX    TMP DP  RH WIND       PRES   REMARKS
GRAND ISLAND   CLOUDY    29  26  89 CALM      30.17R
AURORA         CLOUDY    30  27  88 CALM      30.17R
HASTINGS       CLOUDY    30  25  81 W5        30.15R WCI  25
HEBRON         CLOUDY    30  26  83 CALM      30.19S
HOLDREGE       CLOUDY    28  26  89 W3        30.14R
KEARNEY *      CLOUDY    28  23  80 SW7       30.15R WCI  21
YORK           CLOUDY    28  27  93 S3        30.18R
$$

NEZ011>018-030>034-042>045-190200-
NORTHEAST NEBRASKA

CITY           SKY/WX    TMP DP  RH WIND       PRES   REMARKS
NORFOLK        CLOUDY    29  25  85 S3        30.17R
ALBION         CLOUDY    28  25  86 S3        30.16R
BLAIR          CLOUDY    31  27  83 SE3       30.20S
COLUMBUS *     CLOUDY    28  21  74 S5        30.19S WCI  23
FREMONT        CLOUDY    32  28  85 SE3       30.21S
TEKAMAH        CLOUDY    31  26  82 SE5       30.22S WCI  26
WAYNE          CLOUDY    30  26  86 S6        30.19S WCI  24
$$

NEZ050>053-065>068-078-088>093-190200-
SOUTHEAST NEBRASKA

CITY           SKY/WX    TMP DP  RH WIND       PRES   REMARKS
LINCOLN        CLOUDY    32  27  81 CALM      30.22R
OMAHA EPPLEY   CLOUDY    31  26  82 SE6       30.23S WCI  25
BEATRICE       CLOUDY    31  28  88 CALM      30.20S
FALLS CITY     CLOUDY    30  26  85 CALM      30.23R
NEBRASKA CITY  CLOUDY    30  29  96 CALM      30.22R
PLATTSMOUTH    CLOUDY    30  26  85 CALM      30.22R
$$

NEZ044-045-051>053-067-190200-
OMAHA AREA

CITY           SKY/WX    TMP DP  RH WIND       PRES   REMARKS
OMAHA EPPLEY   CLOUDY    31  26  82 SE6       30.23S WCI  25
BLAIR          CLOUDY    31  27  83 SE3       30.20S
FREMONT        CLOUDY    32  28  85 SE3       30.21S
MILLARD        CLOUDY    31  27  84 CALM      30.22S
OFFUTT AFB     CLOUDY    30  27  86 VRB1      30.22S
PLATTSMOUTH    CLOUDY    30  26  85 CALM      30.22R
WAHOO          CLOUDY    31  27  85 SE5       30.21S WCI  26
$$



USA.gov is the U.S. government's official web portal to all federal, state and local government web resources and services.